Location: Unspecified
(0.0000°N, 0.0000°E)
Time: 14:06:47
(UTC+01:00)

deb Ariane - Visible Passes

Search period start: 27 February 2015 00:00
Search period end: 09 March 2015 00:00
Orbit: 130 x 4612 km, 7.4° (Epoch: 26 February)

Date Brightness Start Highest point End Pass type
(mag) Time Alt. Az. Time Alt. Az. Time Alt. Az.
27 Feb 5.2 05:56:47 28° WNW 05:59:55 52° N 06:12:54 10° ENE visible
27 Feb 4.9 21:05:15 10° WSW 21:14:39 46° S 21:14:43 46° S visible
28 Feb 6.5 04:27:53 19° ENE 04:27:53 19° ENE 04:30:28 10° ENE visible
28 Feb 5.9 06:42:58 10° WNW 06:49:16 55° N 07:05:03 10° E visible
28 Feb 6.2 19:15:56 10° W 19:33:31 58° S 19:40:34 10° ESE visible
28 Feb 6.1 21:50:57 10° WSW 21:55:40 28° WSW 21:55:40 28° WSW visible
01 Mar 5.2 05:06:50 36° NNE 05:06:50 36° NNE 05:13:24 10° ENE visible
01 Mar 5.8 19:54:53 10° WSW 20:10:16 57° S 20:15:20 18° ESE visible
01 Mar 7.0 22:27:38 10° WSW 22:28:57 14° WSW 22:28:57 14° WSW visible
02 Mar 4.7 05:38:08 36° NNW 05:39:11 40° N 05:47:55 10° ENE visible
02 Mar 5.3 20:24:33 10° WSW 20:38:33 58° S 20:41:36 33° ESE visible
03 Mar 5.0 06:01:41 24° NW 06:04:13 42° N 06:13:43 10° ENE visible
03 Mar 4.9 20:45:01 10° WSW 20:58:22 60° S 21:00:03 48° SE visible
04 Mar 5.2 06:17:25 17° NW 06:20:52 43° N 06:30:36 10° E visible
04 Mar 4.9 20:56:22 10° WSW 21:09:40 64° S 21:10:38 59° SE visible
05 Mar 5.2 06:25:18 13° WNW 06:29:02 43° NNE 06:38:28 10° E visible
05 Mar 4.9 20:58:33 10° WSW 21:12:23 68° S 21:13:18 63° SE visible
06 Mar 5.1 06:25:14 13° WNW 06:28:42 42° NNE 06:37:18 10° E visible
06 Mar 5.0 20:51:31 10° WSW 21:06:27 72° S 21:07:58 59° ESE visible
07 Mar 4.9 06:17:11 16° NW 06:19:51 38° NNE 06:27:09 10° E visible
07 Mar 5.3 20:35:08 10° W 20:51:42 74° S 20:54:37 46° ESE visible
07 Mar 7.5 23:03:04 10° W 23:03:55 12° W 23:03:55 12° W visible
08 Mar 4.4 06:01:07 24° NNW 06:02:29 32° NNE 06:08:07 10° ENE visible
08 Mar 5.8 20:09:20 10° W 20:28:02 76° S 20:33:11 30° E visible
08 Mar 6.9 22:37:22 10° W 22:41:44 23° W 22:41:44 23° W visible
